[[{"header":{"parameterUnit":"m.s-1","parameterCategory":1,"la1":30.2991,"la2":30.254,"lo1":-89.0895,"lo2":-89.0444,"dy":0.0017,"dx":0.0017,"nx":28,"ny":28,"refTime":"2024-04-02T03:00:00:Z","depth":0,"parameterNumber":2,"parameterNumberName":"U-component_of_WINDS"},"data":[0,0,0,0,0,0,0,0,0,0,0,0,0,0,0,0,0,0,0,0,0,0,0,0,0,0,0,0,0,0,0,0,0,0,0,0,0,0,0,0,0,0,0,0,0,0,0,0,0,0,0,0,0,0,0,0,0,0,-2.139,-2.139,0,-2.1412,-2.1412,-2.1413,-2.1404,-2.1403,-2.1403,-2.1402,-2.1426,-2.1427,-2.1428,0,0,0,0,0,0,0,0,0,0,0,0,0,-2.134,-2.1341,-2.139,-2.139,-2.139,-2.1412,-2.1413,-2.1413,-2.1404,-2.1403,-2.1402,-2.1402,-2.1425,-2.1427,-2.1428,0,0,0,0,0,0,0,0,0,0,0,0,0,-2.1362,-2.1341,-2.139,-2.1388,-2.1389,-2.1412,-2.1413,-2.1413,-2.1404,-2.1403,-2.1402,-2.1401,-2.1425,-2.1426,-2.1428,-2.1455,0,0,-2.1433,-2.1434,0,0,0,0,0,0,0,0,-2.1361,-2.1364,-2.1388,-2.1389,-2.1389,-2.1404,-2.1404,-2.1427,-2.1404,-2.1398,-2.1402,-2.1401,-2.1419,-2.1421,-2.1427,-2.1456,-2.1457,-2.1433,-2.1434,-2.1435,-2.1436,0,0,0,0,0,0,0,-2.1359,-2.1363,-2.1399,-2.1389,-2.1389,-2.1387,-2.1389,-2.1408,-2.1413,-2.1399,-2.1398,-2.1401,-2.1419,-2.1426,-2.1428,-2.1457,-2.1433,-2.1435,-2.1436,-2.1437,-2.1508,-2.1509,0,0,0,0,0,0,-2.1358,-2.1362,-2.1398,-2.1399,-2.1373,-2.1389,-2.1391,-2.14,-2.1413,-2.1414,-2.1401,-2.14,-2.1423,-2.1426,-2.1429,-2.146,-2.1435,-2.1437,-2.1438,-2.1507,-2.1508,-2.1509,0,0,0,0,0,0,-2.1357,-2.1361,-2.1397,-2.138,-2.1385,-2.139,-2.1401,-2.1401,-2.1407,-2.1415,-2.1416,-2.1407,-2.1423,-2.1426,-2.1448,-2.1461,-2.1438,-2.1439,-2.1506,-2.1508,-2.1509,-2.1523,0,0,0,0,0,0,-2.1355,-2.1361,-2.137,-2.1381,-2.1386,-2.1416,-2.1401,-2.1402,-2.141,-2.1409,-2.142,-2.1421,-2.1422,-2.1446,-2.145,-2.1462,-2.144,-2.1505,-2.1507,-2.1508,-2.1521,-2.1525,-2.1527,0,0,0,0,0,-2.1354,-2.1374,-2.1371,-2.1375,-2.1398,-2.1417,-2.142,-2.142,-2.1411,-2.1421,-2.1426,-2.1421,-2.1459,-2.1448,-2.1453,-2.1466,-2.1504,-2.1506,-2.1508,-2.152,-2.1524,-2.1527,0,0,0,0,0,0,-2.1365,-2.1375,-2.1372,-2.1396,-2.1406,-2.1415,-2.1428,-2.1424,-2.1436,-2.1435,-2.1435,-2.1438,-2.146,-2.1466,-2.1453,-2.1492,-2.148,-2.1483,-2.1488,-2.1491,-2.1494,-2.1492,-2.1442,0,0,0,0,0,-2.1371,-2.1384,-2.1393,-2.1413,-2.1418,-2.1422,-2.143,-2.143,-2.144,-2.1444,-2.145,-2.146,-2.1474,-2.1483,-2.1497,-2.1523,-2.1525,-2.1534,-2.1537,-2.154,-2.1542,-2.1556,-2.156,-2.1516,-2.1516,-2.1516,0,0,-2.1382,-2.1389,-2.1398,-2.1416,-2.1423,-2.1437,-2.1425,-2.1442,-2.1452,-2.1446,-2.1467,-2.1472,-2.1483,-2.1507,-2.1518,-2.1512,-2.1555,-2.1542,-2.1544,-2.1545,-2.1558,-2.1562,-2.1566,-2.1517,-2.1517,-2.1517,0,0,-2.1409,-2.1416,-2.1434,-2.1442,-2.1453,-2.1455,-2.146,-2.147,-2.1473,-2.1494,-2.1489,-2.1502,-2.1527,-2.1535,-2.1542,-2.1573,-2.1569,-2.1578,-2.1593,-2.1607,-2.161,-2.1613,-2.1624,-2.1628,-2.158,-2.158,-2.158,0,-2.1422,-2.1443,-2.1444,-2.146,-2.1468,-2.1463,-2.1481,-2.1488,-2.1503,-2.1509,-2.1503,-2.1533,-2.154,-2.1566,-2.1573,-2.158,-2.1584,-2.1576,-2.161,-2.1613,-2.1615,-2.1626,-2.163,-2.1581,-2.1581,-2.1581,-2.1581,0,-2.1458,-2.1473,-2.1486,-2.15,-2.151,-2.1527,-2.153,-2.154,-2.1539,-2.1542,-2.1564,-2.1572,-2.1587,-2.1594,-2.1593,-2.1619,-2.1615,-2.1609,-2.1597,-2.1621,-2.163,-2.1634,-2.1583,-2.1582,-2.1582,-2.1582,0,0,-2.1493,-2.1507,-2.1512,-2.1518,-2.153,-2.1542,-2.1559,-2.1573,-2.1582,-2.1592,-2.1607,-2.1628,-2.1622,-2.163,-2.1631,-2.1643,-2.1666,-2.1635,-2.1635,-2.164,-2.1695,-2.1699,-2.1703,-2.1664,-2.1665,-2.1665,-2.1694,0,-2.1521,-2.155,-2.1551,-2.1578,-2.1592,-2.1588,-2.1602,-2.1612,-2.1615,-2.1628,-2.1633,-2.1647,-2.1639,-2.1644,-2.1656,-2.1661,-2.1677,-2.1659,-2.1677,-2.1677,-2.1673,-2.1708,-2.1713,-2.1739,-2.1698,-2.1698,-2.1699,0,-2.1557,-2.1569,-2.1597,-2.1607,-2.1612,-2.1626,-2.1639,-2.1651,-2.1662,-2.1664,-2.1673,-2.1672,-2.1689,-2.1677,-2.1702,-2.1689,-2.1697,-2.1701,-2.1702,-2.1703,-2.1689,-2.171,-2.1748,-2.1751,-2.1705,-2.1704,-2.1704,0,-2.1579,-2.1602,-2.1621,-2.1627,-2.1639,-2.1648,-2.1654,-2.1664,-2.1672,-2.1684,-2.169,-2.1704,-2.1711,-2.1722,-2.1725,-2.1716,-2.1749,-2.1737,-2.1751,-2.1751,-2.1757,-2.1757,-2.1796,-2.1764,-2.1764,-2.1764,-2.1763,0,-2.161,-2.1627,-2.1631,-2.1643,-2.1662,-2.1664,-2.1683,-2.1688,-2.1696,-2.1709,-2.1707,-2.172,-2.1723,-2.1736,-2.1738,-2.1758,-2.1761,-2.1763,-2.1763,-2.1763,-2.1763,-2.1767,-2.1765,-2.1765,-2.1764,-2.1764,-2.1764,0,-2.1637,-2.1641,-2.1661,-2.1671,-2.1674,-2.1688,-2.1696,-2.1708,-2.1712,-2.1728,-2.1732,-2.1738,-2.1754,-2.1758,-2.1776,-2.1778,-2.18,-2.1799,-2.1797,-2.1796,-2.1809,-2.1808,-2.1853,-2.1858,-2.1823,-2.1823,-2.1824,0,-2.1656,-2.1669,-2.168,-2.1688,-2.1694,-2.1708,-2.1717,-2.1719,-2.1728,-2.1741,-2.1751,-2.1766,-2.1778,-2.1802,-2.1809,-2.1823,-2.1821,-2.1836,-2.1824,-2.1823,-2.1821,-2.182,-2.1821,-2.1838,-2.1839,-2.1839,-2.1839,0,-2.1689,-2.169,-2.1703,-2.1715,-2.1726,-2.1736,-2.1746,-2.1753,-2.1756,-2.1767,-2.1782,-2.1792,-2.181,-2.1825,-2.1839,-2.1845,-2.1843,-2.1843,-2.1847,-2.1846,-2.1844,-2.1845,-2.1802,-2.1842,-2.1842,-2.1842,-2.1841,-2.1841,-2.1713,-2.1724,-2.1733,-2.1747,-2.1754,-2.1764,-2.1775,-2.178,-2.1793,-2.1808,-2.1808,-2.1825,-2.1835,-2.1854,-2.1861,-2.1874,-2.187,-2.1875,-2.1877,-2.1878,-2.1879,-2.1842,-2.1877,-2.1877,-2.1877,-2.1877,-2.1877,0,-2.1745,-2.1751,-2.1763,-2.1777,-2.1788,-2.1784,-2.1795,-2.1805,-2.1819,-2.1829,-2.184,-2.1858,-2.1873,-2.188,-2.1894,-2.1904,-2.1903,-2.1907,-2.1906,-2.1908,-2.1882,-2.1877,-2.1908,-2.1908,-2.1908,-2.1908,-2.1908,-2.1908,-2.1763,-2.1782,-2.1784,-2.1806,-2.1812,-2.1828,-2.1834,-2.1843,-2.1851,-2.187,-2.1882,-2.1887,-2.1895,-2.191,-2.1924,-2.1925,-2.1931,-2.1935,-2.1937,-2.1913,-2.1909,-2.1906,-2.1902,-2.1937,-2.1937,-2.1961,-2.1961,-2.1961]},{"header":{"parameterUnit":"m.s-1","parameterCategory":1,"la1":30.2991,"la2":30.254,"lo1":-89.0895,"lo2":-89.0444,"dy":0.0017,"dx":0.0017,"nx":28,"ny":28,"refTime":"2024-04-02T03:00:00:Z","depth":0,"parameterNumber":3,"parameterNumberName":"V-component_of_WINDS"},"data":[0,0,0,0,0,0,0,0,0,0,0,0,0,0,0,0,0,0,0,0,0,0,0,0,0,0,0,0,0,0,0,0,0,0,0,0,0,0,0,0,0,0,0,0,0,0,0,0,0,0,0,0,0,0,0,0,0,0,4.5454,4.5454,0,4.543,4.5429,4.5429,4.5382,4.5381,4.538,4.5379,4.5352,4.5352,4.5352,0,0,0,0,0,0,0,0,0,0,0,0,0,4.546,4.546,4.5454,4.5454,4.5453,4.543,4.5429,4.5429,4.5382,4.5381,4.538,4.5379,4.5352,4.5352,4.5352,0,0,0,0,0,0,0,0,0,0,0,0,0,4.5448,4.546,4.5454,4.5427,4.5425,4.543,4.5429,4.5429,4.5382,4.5381,4.5379,4.5378,4.5352,4.5352,4.5352,4.5381,0,0,4.5353,4.5353,0,0,0,0,0,0,0,0,4.5449,4.5448,4.5431,4.5429,4.5426,4.5407,4.5421,4.5413,4.5382,4.5398,4.5379,4.5377,4.5371,4.537,4.5368,4.538,4.5379,4.5353,4.5353,4.5353,4.5353,0,0,0,0,0,0,0,4.545,4.5449,4.5444,4.5431,4.5428,4.5416,4.5413,4.5419,4.5393,4.5397,4.5393,4.5391,4.537,4.5368,4.5367,4.5378,4.5353,4.5353,4.5353,4.5353,4.5414,4.5416,0,0,0,0,0,0,4.5455,4.545,4.5445,4.5444,4.5434,4.5417,4.5414,4.5415,4.5393,4.5388,4.5392,4.5389,4.5369,4.5367,4.5366,4.54,4.5353,4.5353,4.5353,4.5413,4.5414,4.5416,0,0,0,0,0,0,4.5455,4.5455,4.5446,4.5446,4.5444,4.5419,4.542,4.5415,4.5413,4.5389,4.5384,4.5396,4.5367,4.5366,4.5378,4.5398,4.5353,4.5354,4.5411,4.5413,4.5415,4.5467,0,0,0,0,0,0,4.5455,4.5455,4.5466,4.5446,4.5444,4.5459,4.5421,4.5415,4.5414,4.541,4.5391,4.5387,4.5366,4.5378,4.5379,4.5398,4.5354,4.5409,4.5412,4.5415,4.5463,4.5471,4.5477,0,0,0,0,0,4.5456,4.5481,4.5467,4.5466,4.5457,4.546,4.5459,4.5435,4.5416,4.5427,4.5411,4.5387,4.5396,4.538,4.538,4.5399,4.5408,4.5411,4.5414,4.546,4.5469,4.5477,0,0,0,0,0,0,4.5502,4.5477,4.5462,4.5481,4.5473,4.5452,4.5465,4.5445,4.5442,4.5438,4.5408,4.5404,4.5421,4.5411,4.5394,4.5427,4.5398,4.5402,4.5433,4.5441,4.5448,4.545,4.5354,0,0,0,0,0,4.5515,4.552,4.5498,4.5517,4.5514,4.549,4.5491,4.5474,4.5464,4.546,4.5445,4.5437,4.5438,4.5439,4.5438,4.5461,4.5457,4.5475,4.5482,4.5487,4.5491,4.5505,4.5513,4.5427,4.5427,4.5427,0,0,4.554,4.5528,4.5532,4.5526,4.5518,4.5524,4.5488,4.5495,4.5499,4.5461,4.5473,4.5462,4.545,4.5469,4.5476,4.5461,4.5514,4.5492,4.5496,4.5497,4.5509,4.5517,4.5524,4.5429,4.5429,4.5429,0,0,4.5591,4.5581,4.5597,4.559,4.5579,4.5563,4.5567,4.5549,4.5541,4.5553,4.5524,4.5529,4.553,4.5524,4.5521,4.5571,4.5549,4.5571,4.5607,4.562,4.5627,4.5633,4.5652,4.5659,4.5574,4.5575,4.5575,0,4.5624,4.5633,4.5608,4.5618,4.5616,4.5583,4.5599,4.5593,4.5582,4.5581,4.5565,4.5567,4.5557,4.5575,4.5587,4.5585,4.5589,4.5573,4.5628,4.5634,4.5639,4.5657,4.5664,4.5577,4.5577,4.5577,4.5577,0,4.5675,4.5682,4.5696,4.5687,4.5687,4.57,4.5677,4.568,4.5663,4.5649,4.5662,4.5648,4.5645,4.5648,4.563,4.5664,4.5655,4.5634,4.5604,4.565,4.5667,4.5673,4.5582,4.5581,4.558,4.5579,0,0,4.5754,4.5733,4.5738,4.5735,4.572,4.5725,4.5736,4.5734,4.5738,4.5731,4.5741,4.5744,4.5725,4.5722,4.5703,4.5715,4.5758,4.5693,4.5692,4.5707,4.5795,4.5812,4.5821,4.5743,4.5744,4.5745,4.5797,0,4.5802,4.5822,4.58,4.5825,4.5831,4.58,4.581,4.5803,4.579,4.5794,4.5779,4.5783,4.5757,4.5755,4.5765,4.5751,4.5775,4.5746,4.5753,4.5753,4.5758,4.5829,4.5847,4.5896,4.5803,4.5804,4.5805,0,4.5861,4.5859,4.5885,4.587,4.5872,4.5882,4.5879,4.5883,4.5874,4.5864,4.5861,4.584,4.5851,4.5822,4.5837,4.5818,4.5819,4.5812,4.5814,4.5814,4.5783,4.5833,4.5911,4.5919,4.5814,4.5814,4.5813,0,4.5919,4.5922,4.5938,4.5935,4.5919,4.5927,4.592,4.5909,4.591,4.5908,4.5908,4.5906,4.5906,4.5905,4.5884,4.5864,4.5902,4.5871,4.5895,4.5896,4.5905,4.5905,4.5986,4.5904,4.5904,4.5904,4.5904,0,4.5976,4.5993,4.5964,4.5974,4.5992,4.5967,4.5986,4.5976,4.5967,4.5975,4.5947,4.5955,4.5926,4.5931,4.5914,4.5931,4.593,4.5923,4.5919,4.5926,4.5928,4.5927,4.5924,4.5906,4.5905,4.5905,4.5905,0,4.6043,4.6024,4.604,4.6023,4.6019,4.6034,4.6019,4.6028,4.6014,4.6025,4.6025,4.6004,4.6008,4.5987,4.5987,4.5976,4.6001,4.599,4.6005,4.6002,4.6028,4.6027,4.6113,4.6124,4.6034,4.6035,4.6035,0,4.6081,4.6094,4.6079,4.6083,4.6078,4.6084,4.6085,4.606,4.6063,4.6054,4.6065,4.6067,4.6068,4.6076,4.606,4.6061,4.6051,4.6081,4.6051,4.6059,4.6053,4.6053,4.6055,4.6088,4.6089,4.609,4.609,0,4.6152,4.6142,4.6145,4.6145,4.6148,4.6146,4.6143,4.6147,4.6121,4.6125,4.613,4.6131,4.6132,4.6135,4.6133,4.6126,4.6104,4.61,4.6106,4.6115,4.6123,4.6121,4.6024,4.6098,4.6098,4.6097,4.6097,4.6096,4.6207,4.6218,4.6209,4.6214,4.6209,4.6207,4.6215,4.6203,4.6207,4.6206,4.6192,4.62,4.6192,4.6186,4.6182,4.6188,4.6173,4.6182,4.6184,4.6187,4.6192,4.6121,4.6187,4.6187,4.6186,4.6186,4.6186,0,4.6278,4.6271,4.6276,4.6273,4.6277,4.6256,4.6252,4.6257,4.6265,4.6259,4.6261,4.6267,4.627,4.6255,4.6257,4.6265,4.6255,4.6266,4.6266,4.6265,4.6204,4.62,4.6274,4.6274,4.6274,4.6274,4.6274,4.6274,4.6315,4.6333,4.6322,4.6337,4.633,4.6339,4.6338,4.6337,4.6332,4.6341,4.6344,4.6334,4.6325,4.6326,4.6328,4.6324,4.6326,4.6341,4.6334,4.6277,4.6269,4.6261,4.6256,4.6341,4.6341,4.6394,4.6394,4.6395]}]]